| time (UTC) | temp F | wind direction | speed MPH | gust MPH | rain 1hr in | rain 24hr in | rain mn in | humidity % | barometer mb |
| 20260831224704 | 87 | 288 | 14.0 | 19.0 | 0.00 | 0.00 | 0.00 | 24 | 1013.9 |
| 20260831224205 | 87 | 298 | 14.0 | 20.0 | 0.00 | 0.00 | 0.00 | 23 | 1013.9 |
| 20260831223704 | 87 | 279 | 14.0 | 21.0 | 0.00 | 0.00 | 0.00 | 24 | 1013.9 |
| 20260831223205 | 87 | 292 | 14.0 | 21.0 | 0.00 | 0.00 | 0.00 | 23 | 1013.9 |
| 20260831222204 | 87 | 286 | 15.0 | 22.0 | 0.00 | 0.00 | 0.00 | 24 | 1014.2 |
| 20260831221704 | 87 | 313 | 15.0 | 23.0 | 0.00 | 0.00 | 0.00 | 24 | 1014.2 |
| 20260831221204 | 87 | 300 | 16.0 | 23.0 | 0.00 | 0.00 | 0.00 | 24 | 1014.3 |
| 20260831220704 | 87 | 282 | 15.0 | 23.0 | 0.00 | 0.00 | 0.00 | 24 | 1014.2 |
| 20260831220206 | 88 | 294 | 14.0 | 22.0 | 0.00 | 0.00 | 0.00 | 24 | 1014.3 |
| 20260831215704 | 88 | 304 | 15.0 | 24.0 | 0.00 | 0.00 | 0.00 | 23 | 1014.3 |
| 20260831214704 | 88 | 302 | 15.0 | 24.0 | 0.00 | 0.00 | 0.00 | 21 | 1014.2 |
| 20260831214205 | 88 | 311 | 14.0 | 22.0 | 0.00 | 0.00 | 0.00 | 23 | 1014.2 |
| 20260831213704 | 87 | 318 | 14.0 | 21.0 | 0.00 | 0.00 | 0.00 | 23 | 1014.5 |
| 20260831213204 | 87 | 302 | 14.0 | 20.0 | 0.00 | 0.00 | 0.00 | 25 | 1014.3 |
| 20260831212704 | 88 | 277 | 11.0 | 19.0 | 0.00 | 0.00 | 0.00 | 22 | 1014.4 |
| 20260831212204 | 88 | 286 | 10.0 | 17.0 | 0.00 | 0.00 | 0.00 | 22 | 1014.5 |
| 20260831211704 | 88 | 313 | 12.0 | 20.0 | 0.00 | 0.00 | 0.00 | 23 | 1014.6 |
| 20260831211206 | 88 | 319 | 12.0 | 20.0 | 0.00 | 0.00 | 0.00 | 22 | 1014.6 |
| 20260831210704 | 87 | 304 | 12.0 | 20.0 | 0.00 | 0.00 | 0.00 | 22 | 1014.6 |
| 20260831210204 | 87 | 284 | 13.0 | 23.0 | 0.00 | 0.00 | 0.00 | 19 | 1014.5 |
| 20260831205704 | 88 | 284 | 15.0 | 23.0 | 0.00 | 0.00 | 0.00 | 20 | 1014.6 |
| 20260831205206 | 87 | 290 | 15.0 | 21.0 | 0.00 | 0.00 | 0.00 | 22 | 1014.6 |
| 20260831204704 | 87 | 290 | 14.0 | 20.0 | 0.00 | 0.00 | 0.00 | 24 | 1014.6 |
| 20260831204204 | 87 | 279 | 13.0 | 21.0 | 0.00 | 0.00 | 0.00 | 24 | 1014.6 |
| 20260831203704 | 87 | 298 | 13.0 | 21.0 | 0.00 | 0.00 | 0.00 | 24 | 1014.9 |
| 20260831203205 | 86 | 302 | 14.0 | 21.0 | 0.00 | 0.00 | 0.00 | 25 | 1014.9 |
| 20260831202704 | 86 | 267 | 13.0 | 19.0 | 0.00 | 0.00 | 0.00 | 26 | 1015.0 |
| 20260831202204 | 87 | 276 | 12.0 | 19.0 | 0.00 | 0.00 | 0.00 | 25 | 1015.0 |
| 20260831201704 | 86 | 284 | 11.0 | 17.0 | 0.00 | 0.00 | 0.00 | 25 | 1015.0 |
| 20260831200704 | 85 | 307 | 11.0 | 17.0 | 0.00 | 0.00 | 0.00 | 27 | 1015.2 |
| 20260831200204 | 85 | 297 | 9.0 | 15.0 | 0.00 | 0.00 | 0.00 | 26 | 1015.2 |
| 20260831195704 | 85 | 311 | 8.0 | 16.0 | 0.00 | 0.00 | 0.00 | 27 | 1015.2 |
| 20260831195204 | 85 | 305 | 9.0 | 17.0 | 0.00 | 0.00 | 0.00 | 27 | 1015.1 |
| 20260831194705 | 85 | 310 | 9.0 | 18.0 | 0.00 | 0.00 | 0.00 | 28 | 1015.2 |
| 20260831194204 | 85 | 250 | 11.0 | 18.0 | 0.00 | 0.00 | 0.00 | 29 | 1015.2 |
| 20260831193704 | 85 | 332 | 11.0 | 18.0 | 0.00 | 0.00 | 0.00 | 28 | 1015.2 |
| 20260831193204 | 85 | 295 | 10.0 | 18.0 | 0.00 | 0.00 | 0.00 | 28 | 1015.3 |
| 20260831192704 | 85 | 313 | 10.0 | 18.0 | 0.00 | 0.00 | 0.00 | 29 | 1015.3 |
| 20260831191704 | 85 | 273 | 10.0 | 19.0 | 0.00 | 0.00 | 0.00 | 29 | 1015.4 |
| 20260831191204 | 85 | 340 | 9.0 | 16.0 | 0.00 | 0.00 | 0.00 | 29 | 1015.6 |
| 20260831190704 | 85 | 287 | 9.0 | 16.0 | 0.00 | 0.00 | 0.00 | 30 | 1015.6 |
| 20260831190204 | 85 | 309 | 9.0 | 16.0 | 0.00 | 0.00 | 0.00 | 30 | 1015.5 |
| 20260831185204 | 84 | 309 | 8.0 | 14.0 | 0.00 | 0.00 | 0.00 | 30 | 1015.6 |
| 20260831184704 | 84 | 254 | 8.0 | 14.0 | 0.00 | 0.00 | 0.00 | 30 | 1015.7 |
| 20260831183704 | 84 | 295 | 7.0 | 14.0 | 0.00 | 0.00 | 0.00 | 31 | 1015.7 |
| 20260831183204 | 83 | 294 | 7.0 | 15.0 | 0.00 | 0.00 | 0.00 | 31 | 1015.7 |
| 20260831182704 | 83 | 316 | 9.0 | 15.0 | 0.00 | 0.00 | 0.00 | 32 | 1015.7 |
| 20260831181204 | 82 | 271 | 10.0 | 15.0 | 0.00 | 0.00 | 0.00 | 33 | 1015.9 |
| 20260831180704 | 82 | 310 | 10.0 | 17.0 | 0.00 | 0.00 | 0.00 | 33 | 1015.9 |
| 20260831175704 | 82 | 268 | 11.0 | 17.0 | 0.00 | 0.00 | 0.00 | 34 | 1015.9 |
| 20260831175206 | 82 | 296 | 9.0 | 13.0 | 0.00 | 0.00 | 0.00 | 34 | 1015.9 |
| 20260831174705 | 82 | 358 | 9.0 | 13.0 | 0.00 | 0.00 | 0.00 | 34 | 1015.9 |
| 20260831174204 | 82 | 250 | 8.0 | 13.0 | 0.00 | 0.00 | 0.00 | 34 | 1015.9 |
| 20260831172704 | 82 | 247 | 7.0 | 13.0 | 0.00 | 0.00 | 0.00 | 35 | 1015.9 |
| 20260831172204 | 82 | 290 | 6.0 | 12.0 | 0.00 | 0.00 | 0.00 | 35 | 1015.7 |
| 20260831171704 | 81 | 294 | 6.0 | 11.0 | 0.00 | 0.00 | 0.00 | 36 | 1015.7 |
| 20260831171204 | 82 | 297 | 6.0 | 11.0 | 0.00 | 0.00 | 0.00 | 37 | 1015.7 |
| 20260831170706 | 81 | 304 | 5.0 | 11.0 | 0.00 | 0.00 | 0.00 | 37 | 1015.5 |
| 20260831170204 | 81 | 258 | 6.0 | 11.0 | 0.00 | 0.00 | 0.00 | 37 | 1015.5 |
| 20260831165704 | 82 | 277 | 4.0 | 7.0 | 0.00 | 0.00 | 0.00 | 36 | 1015.5 |
| 20260831165204 | 82 | 149 | 3.0 | 7.0 | 0.00 | 0.00 | 0.00 | 37 | 1015.4 |
| 20260831164705 | 82 | 149 | 3.0 | 7.0 | 0.00 | 0.00 | 0.00 | 36 | 1015.3 |
| 20260831164204 | 82 | 171 | 2.0 | 8.0 | 0.00 | 0.00 | 0.00 | 37 | 1015.3 |
| 20260831163704 | 81 | 252 | 2.0 | 8.0 | 0.00 | 0.00 | 0.00 | 38 | 1015.3 |
| 20260831163204 | 81 | 254 | 3.0 | 6.0 | 0.00 | 0.00 | 0.00 | 37 | 1015.3 |
| 20260831162706 | 81 | 258 | 3.0 | 4.0 | 0.00 | 0.00 | 0.00 | 37 | 1015.3 |
| 20260831162204 | 81 | 257 | 1.0 | 4.0 | 0.00 | 0.00 | 0.00 | 39 | 1015.3 |
| 20260831161704 | 80 | 257 | 1.0 | 7.0 | 0.00 | 0.00 | 0.00 | 40 | 1015.3 |
| 20260831161204 | 79 | 257 | 2.0 | 7.0 | 0.00 | 0.00 | 0.00 | 40 | 1015.3 |
| 20260831155705 | 78 | 301 | 3.0 | 8.0 | 0.00 | 0.00 | 0.00 | 42 | 1015.4 |
| 20260831155204 | 78 | 301 | 2.0 | 5.0 | 0.00 | 0.00 | 0.00 | 42 | 1015.4 |
| 20260831154205 | 77 | 292 | 3.0 | 7.0 | 0.00 | 0.00 | 0.00 | 43 | 1015.4 |
| 20260831153705 | 77 | 292 | 3.0 | 8.0 | 0.00 | 0.00 | 0.00 | 43 | 1015.4 |
| 20260831152206 | 75 | 292 | 3.0 | 5.0 | 0.00 | 0.00 | 0.00 | 47 | 1015.4 |
| 20260831151704 | 74 | 292 | 3.0 | 7.0 | 0.00 | 0.00 | 0.00 | 48 | 1015.4 |
| 20260831151204 | 74 | 292 | 3.0 | 7.0 | 0.00 | 0.00 | 0.00 | 49 | 1015.4 |
| 20260831150205 | 73 | 291 | 3.0 | 3.0 | 0.00 | 0.00 | 0.00 | 50 | 1015.5 |
| 20260831145705 | 72 | 320 | 2.0 | 6.0 | 0.00 | 0.00 | 0.00 | 48 | 1015.5 |
| 20260831145204 | 71 | 320 | 3.0 | 6.0 | 0.00 | 0.00 | 0.00 | 48 | 1015.4 |
| 20260831144704 | 71 | 320 | 4.0 | 6.0 | 0.00 | 0.00 | 0.00 | 47 | 1015.4 |
| 20260831144205 | 70 | 358 | 4.0 | 5.0 | 0.00 | 0.00 | 0.00 | 48 | 1015.4 |
| 20260831143704 | 70 | 321 | 3.0 | 4.0 | 0.00 | 0.00 | 0.00 | 49 | 1015.4 |
| 20260831143204 | 69 | 358 | 2.0 | 6.0 | 0.00 | 0.00 | 0.00 | 51 | 1015.4 |
| 20260831142704 | 69 | 320 | 3.0 | 6.0 | 0.00 | 0.00 | 0.00 | 53 | 1015.3 |
| 20260831142204 | 68 | 320 | 4.0 | 6.0 | 0.00 | 0.00 | 0.00 | 55 | 1015.3 |
| 20260831141704 | 68 | 321 | 3.0 | 5.0 | 0.00 | 0.00 | 0.00 | 56 | 1015.2 |
| 20260831141204 | 68 | 321 | 2.0 | 4.0 | 0.00 | 0.00 | 0.00 | 58 | 1015.2 |
| 20260831140705 | 67 | 321 | 2.0 | 8.0 | 0.00 | 0.00 | 0.00 | 59 | 1015.1 |
| 20260831135704 | 67 | 321 | 4.0 | 8.0 | 0.00 | 0.00 | 0.00 | 59 | 1015.0 |
| 20260831135204 | 66 | 319 | 4.0 | 6.0 | 0.00 | 0.00 | 0.00 | 63 | 1015.0 |
| 20260831134704 | 66 | 320 | 3.0 | 9.0 | 0.00 | 0.00 | 0.00 | 63 | 1014.9 |
| 20260831134204 | 66 | 320 | 3.0 | 10.0 | 0.00 | 0.00 | 0.00 | 62 | 1014.9 |
| 20260831133704 | 66 | 320 | 5.0 | 10.0 | 0.00 | 0.00 | 0.00 | 62 | 1014.7 |
| 20260831133205 | 65 | 320 | 6.0 | 10.0 | 0.00 | 0.00 | 0.00 | 63 | 1014.7 |
| 20260831132705 | 65 | 318 | 5.0 | 9.0 | 0.00 | 0.00 | 0.00 | 63 | 1014.6 |
| 20260831132205 | 65 | 317 | 5.0 | 6.0 | 0.00 | 0.00 | 0.00 | 63 | 1014.5 |
| 20260831131705 | 65 | 321 | 5.0 | 9.0 | 0.00 | 0.00 | 0.00 | 63 | 1014.5 |
| 20260831131205 | 65 | 321 | 5.0 | 9.0 | 0.00 | 0.00 | 0.00 | 63 | 1014.4 |
| 20260831130704 | 65 | 320 | 5.0 | 9.0 | 0.00 | 0.00 | 0.00 | 63 | 1014.4 |
| 20260831130204 | 65 | 319 | 4.0 | 8.0 | 0.00 | 0.00 | 0.00 | 63 | 1014.4 |
| 20260831125704 | 65 | 313 | 4.0 | 8.0 | 0.00 | 0.00 | 0.00 | 63 | 1014.4 |
| 20260831125206 | 65 | 313 | 5.0 | 10.0 | 0.00 | 0.00 | 0.00 | 63 | 1014.3 |
| 20260831124704 | 65 | 319 | 5.0 | 10.0 | 0.00 | 0.00 | 0.00 | 63 | 1014.3 |
| 20260831124204 | 65 | 311 | 6.0 | 10.0 | 0.00 | 0.00 | 0.00 | 63 | 1014.3 |
| 20260831123704 | 66 | 311 | 7.0 | 10.0 | 0.00 | 0.00 | 0.00 | 63 | 1014.3 |
| 20260831122704 | 66 | 300 | 6.0 | 11.0 | 0.00 | 0.00 | 0.00 | 63 | 1014.2 |
| 20260831121704 | 66 | 296 | 8.0 | 11.0 | 0.00 | 0.00 | 0.00 | 63 | 1014.2 |
| 20260831121203 | 66 | 304 | 8.0 | 14.0 | 0.00 | 0.00 | 0.00 | 63 | 1014.2 |
| 20260831120204 | 67 | 313 | 8.0 | 14.0 | 0.00 | 0.00 | 0.00 | 62 | 1014.3 |
| 20260831115705 | 67 | 323 | 8.0 | 12.0 | 0.00 | 0.00 | 0.00 | 62 | 1014.3 |
| 20260831115205 | 67 | 318 | 6.0 | 11.0 | 0.00 | 0.00 | 0.00 | 62 | 1014.4 |
| 20260831114704 | 67 | 317 | 5.0 | 10.0 | 0.00 | 0.00 | 0.00 | 62 | 1014.4 |
| 20260831114204 | 67 | 315 | 5.0 | 10.0 | 0.00 | 0.00 | 0.00 | 62 | 1014.3 |
| 20260831113706 | 67 | 324 | 5.0 | 10.0 | 0.00 | 0.00 | 0.00 | 61 | 1014.4 |
| 20260831113204 | 67 | 332 | 6.0 | 9.0 | 0.00 | 0.00 | 0.00 | 62 | 1014.4 |
| 20260831112704 | 67 | 331 | 5.0 | 9.0 | 0.00 | 0.00 | 0.00 | 61 | 1014.4 |
| 20260831112205 | 67 | 332 | 6.0 | 9.0 | 0.00 | 0.00 | 0.00 | 62 | 1014.4 |
| 20260831111704 | 67 | 332 | 6.0 | 9.0 | 0.00 | 0.00 | 0.00 | 62 | 1014.3 |
| 20260831111204 | 67 | 333 | 5.0 | 6.0 | 0.00 | 0.00 | 0.00 | 63 | 1014.2 |
| 20260831110705 | 67 | 320 | 4.0 | 8.0 | 0.00 | 0.00 | 0.00 | 63 | 1014.4 |
| 20260831110204 | 67 | 320 | 4.0 | 8.0 | 0.00 | 0.00 | 0.00 | 63 | 1014.4 |
| 20260831105705 | 67 | 320 | 5.0 | 8.0 | 0.00 | 0.00 | 0.00 | 63 | 1014.4 |
| 20260831105204 | 67 | 316 | 5.0 | 8.0 | 0.00 | 0.00 | 0.00 | 63 | 1014.4 |
| 20260831104704 | 67 | 316 | 5.0 | 10.0 | 0.00 | 0.00 | 0.00 | 63 | 1014.3 |
| 20260831104204 | 67 | 323 | 6.0 | 10.0 | 0.00 | 0.00 | 0.00 | 63 | 1014.4 |
| 20260831103704 | 67 | 342 | 6.0 | 10.0 | 0.00 | 0.00 | 0.00 | 63 | 1014.4 |
| 20260831103204 | 67 | 334 | 5.0 | 8.0 | 0.00 | 0.00 | 0.00 | 64 | 1014.4 |
| 20260831102704 | 67 | 322 | 3.0 | 6.0 | 0.00 | 0.00 | 0.00 | 64 | 1014.5 |
| 20260831102204 | 67 | 322 | 3.0 | 8.0 | 0.00 | 0.00 | 0.00 | 64 | 1014.4 |
| 20260831101704 | 67 | 322 | 3.0 | 9.0 | 0.00 | 0.00 | 0.00 | 64 | 1014.4 |
| 20260831101205 | 67 | 321 | 5.0 | 10.0 | 0.00 | 0.00 | 0.00 | 64 | 1014.3 |
| 20260831100204 | 67 | 315 | 6.0 | 10.0 | 0.00 | 0.00 | 0.00 | 64 | 1014.3 |
| 20260831095704 | 68 | 305 | 6.0 | 9.0 | 0.00 | 0.00 | 0.00 | 64 | 1014.4 |
| 20260831095205 | 68 | 313 | 5.0 | 9.0 | 0.00 | 0.00 | 0.00 | 65 | 1014.4 |
| 20260831094704 | 67 | 319 | 5.0 | 8.0 | 0.00 | 0.00 | 0.00 | 66 | 1014.4 |
| 20260831094205 | 68 | 320 | 4.0 | 5.0 | 0.00 | 0.00 | 0.00 | 66 | 1014.4 |
| 20260831093705 | 68 | 321 | 4.0 | 5.0 | 0.00 | 0.00 | 0.00 | 65 | 1014.4 |
| 20260831093204 | 68 | 321 | 3.0 | 6.0 | 0.00 | 0.00 | 0.00 | 65 | 1014.4 |
| 20260831092704 | 68 | 321 | 3.0 | 6.0 | 0.00 | 0.00 | 0.00 | 65 | 1014.4 |
| 20260831092204 | 68 | 321 | 3.0 | 6.0 | 0.00 | 0.00 | 0.00 | 65 | 1014.4 |
| 20260831091704 | 68 | 321 | 4.0 | 8.0 | 0.00 | 0.00 | 0.00 | 66 | 1014.4 |
| 20260831091204 | 68 | 316 | 4.0 | 8.0 | 0.00 | 0.00 | 0.00 | 65 | 1014.3 |
| 20260831090704 | 68 | 316 | 5.0 | 8.0 | 0.00 | 0.00 | 0.00 | 66 | 1014.3 |
| 20260831090205 | 68 | 317 | 5.0 | 10.0 | 0.00 | 0.00 | 0.00 | 66 | 1014.3 |
| 20260831085705 | 68 | 322 | 6.0 | 10.0 | 0.00 | 0.00 | 0.00 | 66 | 1014.2 |
| 20260831085204 | 68 | 325 | 6.0 | 10.0 | 0.00 | 0.00 | 0.00 | 67 | 1014.3 |
| 20260831084204 | 68 | 309 | 6.0 | 10.0 | 0.00 | 0.00 | 0.00 | 66 | 1014.3 |
| 20260831083704 | 68 | 307 | 5.0 | 9.0 | 0.00 | 0.00 | 0.00 | 66 | 1014.4 |
| 20260831083204 | 68 | 315 | 5.0 | 11.0 | 0.00 | 0.00 | 0.00 | 66 | 1014.4 |
| 20260831082705 | 68 | 319 | 6.0 | 13.0 | 0.00 | 0.00 | 0.00 | 66 | 1014.5 |
| 20260831082204 | 68 | 342 | 8.0 | 14.0 | 0.00 | 0.00 | 0.00 | 67 | 1014.6 |
| 20260831081204 | 69 | 313 | 10.0 | 14.0 | 0.00 | 0.00 | 0.00 | 67 | 1014.6 |
| 20260831080704 | 69 | 307 | 10.0 | 14.0 | 0.00 | 0.00 | 0.00 | 67 | 1014.6 |
| 20260831075704 | 69 | 303 | 10.0 | 15.0 | 0.00 | 0.00 | 0.00 | 66 | 1014.7 |
| 20260831074704 | 69 | 316 | 9.0 | 14.0 | 0.00 | 0.00 | 0.00 | 64 | 1015.0 |
| 20260831074204 | 69 | 296 | 9.0 | 13.0 | 0.00 | 0.00 | 0.00 | 64 | 1015.0 |
| 20260831073704 | 69 | 315 | 9.0 | 13.0 | 0.00 | 0.00 | 0.00 | 63 | 1015.0 |
| 20260831073204 | 69 | 314 | 8.0 | 13.0 | 0.00 | 0.00 | 0.00 | 63 | 1015.0 |
| 20260831072204 | 70 | 325 | 6.0 | 11.0 | 0.00 | 0.00 | 0.00 | 62 | 1015.0 |
| 20260831071704 | 70 | 309 | 6.0 | 12.0 | 0.00 | 0.00 | 0.00 | 60 | 1015.0 |
| 20260831071205 | 70 | 329 | 8.0 | 12.0 | 0.00 | 0.00 | 0.00 | 60 | 1014.9 |
| 20260831070204 | 70 | 321 | 8.0 | 12.0 | 0.00 | 0.00 | 0.00 | 59 | 1014.7 |
| 20260831065704 | 70 | 319 | 8.0 | 12.0 | 0.00 | 0.00 | 0.00 | 59 | 1014.9 |
| 20260831065204 | 71 | 303 | 7.0 | 12.0 | 0.00 | 0.00 | 0.00 | 59 | 1014.9 |
| 20260831064704 | 71 | 314 | 7.0 | 11.0 | 0.00 | 0.00 | 0.00 | 58 | 1014.9 |
| 20260831063704 | 71 | 321 | 7.0 | 11.0 | 0.00 | 0.00 | 0.00 | 59 | 1015.0 |
| 20260831063204 | 71 | 315 | 8.0 | 15.0 | 0.00 | 0.00 | 0.00 | 58 | 1014.9 |
| 20260831062704 | 71 | 313 | 8.0 | 15.0 | 0.00 | 0.00 | 0.00 | 58 | 1015.0 |
| 20260831061704 | 71 | 310 | 7.0 | 13.0 | 0.00 | 0.00 | 0.00 | 57 | 1014.9 |
| 20260831061204 | 71 | 309 | 6.0 | 11.0 | 0.00 | 0.00 | 0.00 | 57 | 1014.9 |
| 20260831060704 | 71 | 315 | 7.0 | 11.0 | 0.00 | 0.00 | 0.00 | 57 | 1014.9 |
| 20260831060205 | 71 | 318 | 7.0 | 11.0 | 0.00 | 0.00 | 0.00 | 57 | 1014.9 |
| 20260831055704 | 71 | 311 | 7.0 | 14.0 | 0.00 | 0.00 | 0.00 | 56 | 1014.9 |
| 20260831055204 | 72 | 317 | 8.0 | 14.0 | 0.00 | 0.00 | 0.00 | 55 | 1014.9 |
| 20260831054704 | 72 | 327 | 8.0 | 14.0 | 0.00 | 0.00 | 0.00 | 55 | 1015.0 |
| 20260831054205 | 72 | 313 | 9.0 | 13.0 | 0.00 | 0.00 | 0.00 | 55 | 1015.1 |
| 20260831052704 | 73 | 315 | 6.0 | 10.0 | 0.00 | 0.00 | 0.00 | 50 | 1015.0 |
| 20260831052204 | 73 | 311 | 6.0 | 10.0 | 0.00 | 0.00 | 0.00 | 49 | 1014.9 |
| 20260831051704 | 74 | 306 | 6.0 | 10.0 | 0.00 | 0.00 | 0.00 | 47 | 1014.9 |
| 20260831050704 | 74 | 316 | 6.0 | 10.0 | 0.00 | 0.00 | 0.00 | 46 | 1015.0 |
| 20260831045705 | 74 | 311 | 7.0 | 11.0 | 0.00 | 0.00 | 0.00 | 47 | 1015.0 |
| 20260831045204 | 74 | 306 | 7.0 | 11.0 | 0.00 | 0.00 | 0.00 | 46 | 1014.9 |
| 20260831044704 | 74 | 310 | 6.0 | 10.0 | 0.00 | 0.00 | 0.00 | 46 | 1014.9 |
| 20260831044204 | 74 | 313 | 5.0 | 11.0 | 0.00 | 0.00 | 0.00 | 46 | 1014.9 |
| 20260831043704 | 75 | 300 | 6.0 | 11.0 | 0.00 | 0.00 | 0.00 | 45 | 1014.9 |
| 20260831043204 | 75 | 288 | 7.0 | 11.0 | 0.00 | 0.00 | 0.00 | 44 | 1014.9 |
| 20260831042704 | 76 | 295 | 8.0 | 11.0 | 0.00 | 0.00 | 0.00 | 42 | 1014.9 |
| 20260831042204 | 76 | 291 | 7.0 | 11.0 | 0.00 | 0.00 | 0.00 | 39 | 1014.9 |
| 20260831041704 | 77 | 293 | 7.0 | 11.0 | 0.00 | 0.00 | 0.00 | 37 | 1014.7 |
| 20260831041204 | 78 | 302 | 6.0 | 11.0 | 0.00 | 0.00 | 0.00 | 34 | 1014.6 |
| 20260831040704 | 78 | 299 | 5.0 | 7.0 | 0.00 | 0.00 | 0.00 | 32 | 1014.6 |
| 20260831040205 | 78 | 317 | 3.0 | 5.0 | 0.00 | 0.00 | 0.00 | 32 | 1014.6 |
| 20260831035704 | 79 | 321 | 2.0 | 3.0 | 0.00 | 0.00 | 0.00 | 32 | 1014.5 |
| 20260831035204 | 79 | 321 | 1.0 | 3.0 | 0.00 | 0.00 | 0.00 | 32 | 1014.5 |
| 20260831034704 | 79 | 321 | 1.0 | 4.0 | 0.00 | 0.00 | 0.00 | 32 | 1014.4 |
| 20260831034204 | 79 | 321 | 1.0 | 6.0 | 0.00 | 0.00 | 0.00 | 31 | 1014.3 |
| 20260831033704 | 80 | 321 | 2.0 | 6.0 | 0.00 | 0.00 | 0.00 | 31 | 1014.3 |
| 20260831033204 | 80 | 321 | 3.0 | 8.0 | 0.00 | 0.00 | 0.00 | 31 | 1014.2 |
| 20260831032704 | 80 | 321 | 4.0 | 8.0 | 0.00 | 0.00 | 0.00 | 30 | 1014.1 |
| 20260831032204 | 80 | 318 | 5.0 | 8.0 | 0.00 | 0.00 | 0.00 | 30 | 1014.0 |
| 20260831031704 | 80 | 323 | 5.0 | 8.0 | 0.00 | 0.00 | 0.00 | 30 | 1013.9 |
| 20260831030704 | 81 | 358 | 3.0 | 8.0 | 0.00 | 0.00 | 0.00 | 30 | 1013.8 |
| 20260831030204 | 81 | 358 | 3.0 | 8.0 | 0.00 | 0.00 | 0.00 | 30 | 1013.8 |
| 20260831025704 | 81 | 347 | 4.0 | 8.0 | 0.00 | 0.00 | 0.00 | 29 | 1013.8 |
| 20260831025204 | 81 | 358 | 4.0 | 10.0 | 0.00 | 0.00 | 0.00 | 28 | 1013.6 |
| 20260831024704 | 82 | 358 | 5.0 | 10.0 | 0.00 | 0.00 | 0.00 | 27 | 1013.8 |
| 20260831023705 | 82 | 358 | 7.0 | 17.0 | 0.00 | 0.00 | 0.00 | 27 | 1013.5 |
| 20260831023204 | 83 | 358 | 8.0 | 17.0 | 0.00 | 0.00 | 0.00 | 26 | 1013.5 |
| 20260831022704 | 83 | 358 | 10.0 | 17.0 | 0.00 | 0.00 | 0.00 | 26 | 1013.4 |
| 20260831022204 | 83 | 358 | 9.0 | 17.0 | 0.00 | 0.00 | 0.00 | 26 | 1013.3 |
| 20260831020704 | 84 | 358 | 10.0 | 17.0 | 0.00 | 0.00 | 0.00 | 27 | 1013.1 |
| 20260831020204 | 84 | 358 | 10.0 | 16.0 | 0.00 | 0.00 | 0.00 | 26 | 1013.1 |
| 20260831015204 | 85 | 358 | 11.0 | 18.0 | 0.00 | 0.00 | 0.00 | 25 | 1013.1 |
| 20260831014704 | 85 | 313 | 12.0 | 21.0 | 0.00 | 0.00 | 0.00 | 25 | 1013.0 |
| 20260831013704 | 86 | 315 | 13.0 | 21.0 | 0.00 | 0.00 | 0.00 | 25 | 1013.1 |
| 20260831013204 | 86 | 321 | 12.0 | 21.0 | 0.00 | 0.00 | 0.00 | 25 | 1013.0 |
| 20260831012704 | 86 | 338 | 13.0 | 21.0 | 0.00 | 0.00 | 0.00 | 25 | 1013.0 |
| 20260831012205 | 87 | 316 | 13.0 | 19.0 | 0.00 | 0.00 | 0.00 | 25 | 1013.0 |
| 20260831011204 | 87 | 311 | 13.0 | 19.0 | 0.00 | 0.00 | 0.00 | 25 | 1013.0 |
| 20260831010705 | 87 | 302 | 12.0 | 21.0 | 0.00 | 0.00 | 0.00 | 25 | 1013.1 |
| 20260831010205 | 88 | 261 | 12.0 | 21.0 | 0.00 | 0.00 | 0.00 | 24 | 1013.0 |
| 20260831005704 | 88 | 277 | 13.0 | 21.0 | 0.00 | 0.00 | 0.00 | 25 | 1013.0 |
| 20260831005205 | 88 | 298 | 14.0 | 20.0 | 0.00 | 0.00 | 0.00 | 25 | 1013.1 |
| 20260831004704 | 88 | 294 | 13.0 | 19.0 | 0.00 | 0.00 | 0.00 | 25 | 1013.0 |
| 20260831004205 | 89 | 306 | 13.0 | 19.0 | 0.00 | 0.00 | 0.00 | 25 | 1013.0 |
| 20260831003704 | 89 | 277 | 13.0 | 24.0 | 0.00 | 0.00 | 0.00 | 25 | 1013.0 |
| 20260831003204 | 89 | 311 | 14.0 | 24.0 | 0.00 | 0.00 | 0.00 | 25 | 1012.9 |
| 20260831002704 | 89 | 263 | 14.0 | 24.0 | 0.00 | 0.00 | 0.00 | 25 | 1012.9 |
| 20260831002206 | 90 | 300 | 12.0 | 18.0 | 0.00 | 0.00 | 0.00 | 24 | 1012.9 |
| 20260831001704 | 90 | 300 | 10.0 | 18.0 | 0.00 | 0.00 | 0.00 | 23 | 1012.9 |
| 20260831001204 | 90 | 296 | 10.0 | 20.0 | 0.00 | 0.00 | 0.00 | 23 | 1012.9 |
| 20260831000704 | 90 | 321 | 11.0 | 20.0 | 0.00 | 0.00 | 0.00 | 23 | 1012.9 |
| 20260831000206 | 90 | 3 | 12.0 | 18.0 | 0.00 | 0.00 | 0.00 | 22 | 1012.9 |
| 20260830235704 | 90 | 3 | 12.0 | 19.0 | 0.00 | 0.00 | 0.00 | 22 | 1012.9 |
| 20260830235204 | 90 | 21 | 13.0 | 19.0 | 0.00 | 0.00 | 0.00 | 22 | 1012.9 |
| 20260830234204 | 91 | 348 | 10.0 | 20.0 | 0.00 | 0.00 | 0.00 | 21 | 1012.9 |
| 20260830233704 | 91 | 345 | 11.0 | 20.0 | 0.00 | 0.00 | 0.00 | 21 | 1012.9 |
| 20260830233203 | 90 | 10 | 12.0 | 20.0 | 0.00 | 0.00 | 0.00 | 22 | 1012.9 |
| 20260830232704 | 91 | 55 | 10.0 | 18.0 | 0.00 | 0.00 | 0.00 | 21 | 1012.9 |
| 20260830232204 | 92 | 3 | 9.0 | 18.0 | 0.00 | 0.00 | 0.00 | 22 | 1013.0 |
| 20260830231704 | 91 | 315 | 10.0 | 18.0 | 0.00 | 0.00 | 0.00 | 23 | 1013.0 |
| 20260830231204 | 91 | 327 | 8.0 | 16.0 | 0.00 | 0.00 | 0.00 | 23 | 1013.0 |
| 20260830225704 | 91 | 309 | 10.0 | 23.0 | 0.00 | 0.00 | 0.00 | 24 | 1013.1 |
| 20260830225204 | 91 | 330 | 11.0 | 23.0 | 0.00 | 0.00 | 0.00 | 24 | 1013.2 |